When you browse on this site, cookies collect data to enhance your experience and personalize the content and advertising you see.
Visit our Privacy Policy to learn more. By continuing to use the site, you agree to this use of cookies and data.
  • In Hungary
  • List of Countries
  • For 7 days
  • Water Temperature
  • Weather Map
  • News
  • Weather Widgets
  • user-avatar
    Login

    Hourly Weather Obschiy

    Today, 21 October, Monday

    Time Temperature Precipitation Wind Pressure Humidity
    00:00 +12°C° 0 mm 3 mps 762 mmHg 83%
    01:00 +11°C° 0 mm 3 mps 762 mmHg 83%
    02:00 +11°C° 0 mm 3 mps 762 mmHg 83%
    03:00 +11°C° 0 mm 3 mps 762 mmHg 84%
    04:00 +11°C° 0 mm 3 mps 762 mmHg 85%
    05:00 +10°C° 0 mm 3 mps 762 mmHg 85%
    06:00 +10°C° 0 mm 3 mps 762 mmHg 85%
    07:00 +11°C° 0 mm 3 mps 762 mmHg 79%
    08:00 +12°C° 0 mm 4 mps 762 mmHg 74%
    09:00 +14°C° 0 mm 4 mps 763 mmHg 69%
    10:00 +15°C° 0 mm 4 mps 763 mmHg 63%
    11:00 +17°C° 0 mm 4 mps 763 mmHg 57%
    12:00 +19°C° 0 mm 4 mps 762 mmHg 51%
    13:00 +19°C° 0 mm 4 mps 762 mmHg 49%
    14:00 +19°C° 0 mm 3 mps 762 mmHg 48%
    15:00 +19°C° 0 mm 3 mps 762 mmHg 46%
    16:00 +18°C° 0 mm 3 mps 762 mmHg 50%
    17:00 +16°C° 0 mm 2 mps 761 mmHg 55%
    18:00 +15°C° 0 mm 2 mps 761 mmHg 59%
    19:00 +14°C° 0 mm 2 mps 761 mmHg 61%
    20:00 +13°C° 0 mm 3 mps 761 mmHg 62%
    21:00 +12°C° 0 mm 3 mps 761 mmHg 64%
    22:00 +12°C° 0 mm 3 mps 761 mmHg 65%
    23:00 +11°C° 0 mm 3 mps 761 mmHg 67%

    Tomorrow, 22 October, Tuesday

    Time Temperature Precipitation Wind Pressure Humidity
    00:00 +11°C° 0 mm 3 mps 761 mmHg 68%
    01:00 +12°C° 0 mm 2 mps 761 mmHg 69%
    02:00 +12°C° 0 mm 2 mps 761 mmHg 70%
    03:00 +11°C° 0 mm 1 mps 760 mmHg 70%
    04:00 +11°C° 0 mm 1 mps 760 mmHg 71%
    05:00 +11°C° 0 mm 1 mps 760 mmHg 72%
    06:00 +10°C° 0 mm 2 mps 760 mmHg 73%
    07:00 +12°C° 0 mm 2 mps 760 mmHg 69%
    08:00 +13°C° 0 mm 2 mps 760 mmHg 65%
    09:00 +14°C° 0 mm 2 mps 760 mmHg 61%
    10:00 +15°C° 0 mm 2 mps 760 mmHg 56%
    11:00 +17°C° 0 mm 2 mps 760 mmHg 52%
    12:00 +18°C° 0 mm 2 mps 760 mmHg 47%
    13:00 +19°C° 0 mm 2 mps 760 mmHg 46%
    14:00 +19°C° 0 mm 2 mps 760 mmHg 44%
    15:00 +19°C° 0 mm 2 mps 759 mmHg 43%
    16:00 +18°C° 0 mm 2 mps 759 mmHg 47%
    17:00 +18°C° 0 mm 1 mps 759 mmHg 51%
    18:00 +15°C° 0 mm 1 mps 759 mmHg 56%
    19:00 +15°C° 0 mm 1 mps 759 mmHg 57%
    20:00 +14°C° 0 mm 1 mps 759 mmHg 59%
    21:00 +14°C° 0 mm 1 mps 759 mmHg 60%
    22:00 +14°C° 0 mm 2 mps 759 mmHg 62%
    23:00 +13°C° 0 mm 2 mps 759 mmHg 63%

    Day after tomorrow, 23 October, Wednesday

    Time Temperature Precipitation Wind Pressure Humidity
    00:00 +13°C° 0 mm 2 mps 759 mmHg 65%
    01:00 +13°C° 0 mm 2 mps 759 mmHg 66%
    02:00 +12°C° 0 mm 1 mps 759 mmHg 67%
    03:00 +12°C° 0 mm 1 mps 759 mmHg 67%
    04:00 +12°C° 0 mm 1 mps 759 mmHg 68%
    05:00 +12°C° 0 mm 1 mps 759 mmHg 69%
    06:00 +12°C° 0 mm 1 mps 759 mmHg 70%
    07:00 +13°C° 0 mm 1 mps 759 mmHg 66%
    08:00 +14°C° 0 mm 1 mps 759 mmHg 62%
    09:00 +15°C° 0 mm 1 mps 759 mmHg 59%
    10:00 +18°C° 0 mm 1 mps 759 mmHg 55%
    11:00 +19°C° 0 mm 1 mps 759 mmHg 52%
    12:00 +20°C° 0 mm 1 mps 759 mmHg 48%
    13:00 +20°C° 0 mm 1 mps 759 mmHg 47%
    14:00 +21°C° 0 mm 1 mps 759 mmHg 46%
    15:00 +21°C° 0 mm 1 mps 759 mmHg 44%
    16:00 +20°C° 0 mm 1 mps 759 mmHg 49%
    17:00 +19°C° 0 mm 1 mps 759 mmHg 54%
    18:00 +16°C° 0 mm 1 mps 758 mmHg 58%
    19:00 +16°C° 0 mm 1 mps 758 mmHg 60%
    20:00 +15°C° 0 mm 1 mps 759 mmHg 61%
    21:00 +15°C° 0 mm 1 mps 759 mmHg 63%
    22:00 +14°C° 0 mm 2 mps 759 mmHg 64%
    23:00 +14°C° 0 mm 2 mps 758 mmHg 65%

    24 October, Thursday

    Time Temperature Precipitation Wind Pressure Humidity
    00:00 +13°C° 0 mm 2 mps 758 mmHg 65%
    01:00 +13°C° 0 mm 2 mps 758 mmHg 66%
    02:00 +13°C° 0 mm 2 mps 758 mmHg 67%
    03:00 +12°C° 0 mm 2 mps 758 mmHg 68%
    04:00 +12°C° 0 mm 1 mps 758 mmHg 68%
    05:00 +12°C° 0 mm 1 mps 758 mmHg 69%
    06:00 +12°C° 0 mm 1 mps 758 mmHg 69%
    07:00 +13°C° 0 mm 1 mps 759 mmHg 65%
    08:00 +14°C° 0 mm 1 mps 759 mmHg 60%
    09:00 +15°C° 0 mm 1 mps 759 mmHg 56%
    10:00 +17°C° 0 mm 2 mps 759 mmHg 51%
    11:00 +18°C° 0 mm 2 mps 759 mmHg 47%
    12:00 +19°C° 0 mm 3 mps 758 mmHg 42%
    13:00 +20°C° 0 mm 3 mps 758 mmHg 41%
    14:00 +20°C° 0 mm 2 mps 758 mmHg 40%
    15:00 +20°C° 0 mm 2 mps 758 mmHg 39%
    16:00 +19°C° 0 mm 2 mps 758 mmHg 43%
    17:00 +17°C° 0 mm 2 mps 758 mmHg 47%
    18:00 +16°C° 0 mm 2 mps 758 mmHg 51%
    19:00 +15°C° 0 mm 2 mps 758 mmHg 51%
    20:00 +15°C° 0 mm 2 mps 758 mmHg 52%
    21:00 +14°C° 0 mm 2 mps 758 mmHg 52%
    22:00 +14°C° 0 mm 2 mps 758 mmHg 53%
    23:00 +13°C° 0 mm 2 mps 758 mmHg 54%

    25 October, Friday

    Time Temperature Precipitation Wind Pressure Humidity
    00:00 +13°C° 0 mm 2 mps 758 mmHg 55%
    01:00 +13°C° 0 mm 2 mps 758 mmHg 56%
    02:00 +12°C° 0 mm 2 mps 758 mmHg 57%
    03:00 +12°C° 0 mm 1 mps 758 mmHg 58%
    04:00 +12°C° 0 mm 1 mps 758 mmHg 58%
    05:00 +11°C° 0 mm 1 mps 758 mmHg 59%
    06:00 +11°C° 0 mm 1 mps 758 mmHg 59%
    07:00 +12°C° 0 mm 1 mps 758 mmHg 55%
    08:00 +13°C° 0 mm 1 mps 758 mmHg 52%
    09:00 +15°C° 0 mm 1 mps 758 mmHg 48%
    10:00 +16°C° 0 mm 1 mps 758 mmHg 44%
    11:00 +18°C° 0 mm 1 mps 758 mmHg 41%
    12:00 +20°C° 0 mm 1 mps 758 mmHg 37%
    13:00 +20°C° 0 mm 1 mps 758 mmHg 37%
    14:00 +20°C° 0 mm 1 mps 758 mmHg 36%
    15:00 +21°C° 0 mm 1 mps 758 mmHg 35%
    16:00 +19°C° 0 mm 1 mps 758 mmHg 39%
    17:00 +18°C° 0 mm 1 mps 758 mmHg 43%
    18:00 +16°C° 0 mm 1 mps 758 mmHg 46%
    19:00 +15°C° 0 mm 1 mps 758 mmHg 48%
    20:00 +14°C° 0 mm 1 mps 759 mmHg 49%
    21:00 +14°C° 0 mm 1 mps 759 mmHg 50%
    22:00 +14°C° 0 mm 1 mps 759 mmHg 51%
    23:00 +13°C° 0 mm 1 mps 759 mmHg 51%

    26 October, Saturday

    Time Temperature Precipitation Wind Pressure Humidity
    00:00 +13°C° 0 mm 1 mps 759 mmHg 52%
    01:00 +12°C° 0 mm 1 mps 759 mmHg 53%
    02:00 +11°C° 0 mm 0 mps 759 mmHg 54%
    03:00 +11°C° 0 mm 0 mps 759 mmHg 55%
    04:00 +10°C° 0 mm 0 mps 759 mmHg 56%
    05:00 +10°C° 0 mm 0 mps 759 mmHg 56%
    06:00 +10°C° 0 mm 0 mps 759 mmHg 56%
    07:00 +12°C° 0 mm 1 mps 759 mmHg 53%
    08:00 +13°C° 0 mm 1 mps 760 mmHg 49%
    09:00 +15°C° 0 mm 1 mps 760 mmHg 46%
    10:00 +16°C° 0 mm 1 mps 760 mmHg 42%
    11:00 +18°C° 0 mm 1 mps 760 mmHg 38%
    12:00 +20°C° 0 mm 1 mps 760 mmHg 33%
    13:00 +20°C° 0 mm 1 mps 760 mmHg 32%
    14:00 +20°C° 0 mm 1 mps 759 mmHg 31%
    15:00 +21°C° 0 mm 1 mps 759 mmHg 30%
    16:00 +19°C° 0 mm 1 mps 759 mmHg 34%
    17:00 +18°C° 0 mm 1 mps 759 mmHg 38%
    18:00 +14°C° 0 mm 0 mps 759 mmHg 42%
    19:00 +15°C° 0 mm 1 mps 759 mmHg 44%
    20:00 +14°C° 0 mm 1 mps 759 mmHg 45%
    21:00 +14°C° 0 mm 1 mps 759 mmHg 47%
    22:00 +13°C° 0 mm 1 mps 759 mmHg 48%
    23:00 +13°C° 0 mm 1 mps 759 mmHg 50%

    27 October, Sunday

    Time Temperature Precipitation Wind Pressure Humidity
    00:00 +13°C° 0 mm 1 mps 759 mmHg 51%
    01:00 +12°C° 0 mm 1 mps 759 mmHg 53%
    02:00 +12°C° 0 mm 1 mps 759 mmHg 55%
    03:00 +12°C° 0 mm 1 mps 759 mmHg 57%
    04:00 +11°C° 0 mm 1 mps 759 mmHg 57%
    05:00 +11°C° 0 mm 1 mps 759 mmHg 58%
    06:00 +11°C° 0 mm 1 mps 759 mmHg 59%
    07:00 +12°C° 0 mm 1 mps 759 mmHg 56%
    08:00 +12°C° 0 mm 0 mps 759 mmHg 52%
    09:00 +14°C° 0 mm 0 mps 759 mmHg 49%
    10:00 +16°C° 0 mm 1 mps 759 mmHg 45%
    11:00 +19°C° 0 mm 1 mps 759 mmHg 42%
    12:00 +19°C° 0 mm 2 mps 759 mmHg 38%
    13:00 +19°C° 0 mm 2 mps 758 mmHg 38%
    14:00 +20°C° 0 mm 2 mps 758 mmHg 38%
    15:00 +20°C° 0 mm 2 mps 758 mmHg 38%
    16:00 +19°C° 0 mm 2 mps 757 mmHg 44%
    17:00 +18°C° 0 mm 1 mps 757 mmHg 49%
    18:00 +16°C° 0 mm 1 mps 757 mmHg 54%
    19:00 +15°C° 0 mm 1 mps 757 mmHg 58%
    20:00 +15°C° 0 mm 1 mps 757 mmHg 62%
    21:00 +14°C° 0 mm 2 mps 757 mmHg 66%
    22:00 +14°C° 0 mm 2 mps 757 mmHg 68%
    23:00 +13°C° 0 mm 2 mps 756 mmHg 70%
    Show more